| time (UTC) | temp C | wind direction | speed KPH | gust KPH | rain 1hr cm | rain 24hr cm | rain mn cm | humidity % | barometer mb |
| 20260503034523 | 3 | 183 | 0.0 | 6.4 | 0.00 | 0.00 | 0.00 | 76 | 1014.7 |
| 20260503033028 | 3 | 186 | 0.0 | 3.2 | 0.00 | 0.00 | 0.00 | 75 | 1014.7 |
| 20260503031523 | 3 | 203 | 0.0 | 0.0 | 0.00 | 0.00 | 0.00 | 75 | 1014.7 |
| 20260503030022 | 3 | 195 | 0.0 | 6.4 | 0.00 | 0.00 | 0.00 | 76 | 1014.8 |
| 20260503024511 | 3 | 220 | 0.0 | 4.8 | 0.00 | 0.00 | 0.00 | 76 | 1014.9 |
| 20260503023012 | 3 | 212 | 0.0 | 3.2 | 0.00 | 0.00 | 0.00 | 75 | 1015.0 |
| 20260503021513 | 3 | 213 | 1.6 | 16.1 | 0.00 | 0.00 | 0.00 | 75 | 1015.1 |
| 20260503020010 | 3 | 165 | 0.0 | 11.3 | 0.00 | 0.00 | 0.00 | 75 | 1015.1 |
| 20260503014509 | 3 | 146 | 0.0 | 12.9 | 0.00 | 0.00 | 0.00 | 74 | 1015.1 |
| 20260503013009 | 3 | 185 | 0.0 | 9.7 | 0.00 | 0.00 | 0.00 | 74 | 1015.1 |
| 20260503011507 | 4 | 180 | 0.0 | 0.0 | 0.00 | 0.00 | 0.00 | 73 | 1015.0 |
| 20260503010008 | 4 | 177 | 0.0 | 4.8 | 0.00 | 0.00 | 0.00 | 72 | 1014.9 |
| 20260503004555 | 4 | 160 | 0.0 | 0.0 | 0.00 | 0.00 | 0.00 | 71 | 1014.8 |
| 20260503003104 | 4 | 170 | 0.0 | 1.6 | 0.00 | 0.00 | 0.00 | 71 | 1014.7 |
| 20260503001608 | 4 | 158 | 0.0 | 6.4 | 0.00 | 0.00 | 0.00 | 72 | 1014.7 |
| 20260503000054 | 4 | 209 | 0.0 | 8.0 | 0.00 | 0.00 | 0.00 | 71 | 1014.6 |
| 20260502234552 | 4 | 236 | 0.0 | 17.7 | 0.00 | 0.00 | 0.00 | 70 | 1014.6 |
| 20260502233051 | 4 | 188 | 3.2 | 11.3 | 0.00 | 0.00 | 0.00 | 70 | 1014.6 |
| 20260502231550 | 4 | 212 | 4.8 | 24.1 | 0.00 | 0.00 | 0.00 | 70 | 1014.4 |
| 20260502230050 | 4 | 174 | 4.8 | 16.1 | 0.00 | 0.00 | 0.00 | 70 | 1014.5 |
| 20260502224538 | 4 | 86 | 8.0 | 20.9 | 0.00 | 0.00 | 0.00 | 69 | 1014.5 |
| 20260502223038 | 5 | 228 | 3.2 | 24.1 | 0.00 | 0.00 | 0.00 | 68 | 1014.3 |
| 20260502221541 | 5 | 254 | 4.8 | 30.6 | 0.00 | 0.00 | 0.00 | 68 | 1014.3 |
| 20260502220037 | 5 | 179 | 1.6 | 24.1 | 0.00 | 0.05 | 0.00 | 68 | 1014.3 |
| 20260502214545 | 5 | 116 | 6.4 | 20.9 | 0.00 | 0.05 | 0.00 | 68 | 1014.3 |
| 20260502213036 | 5 | 240 | 8.0 | 25.7 | 0.00 | 0.05 | 0.00 | 68 | 1014.1 |
| 20260502211534 | 5 | 252 | 4.8 | 17.7 | 0.00 | 0.05 | 0.00 | 66 | 1014.1 |
| 20260502210033 | 5 | 236 | 3.2 | 25.7 | 0.00 | 0.10 | 0.00 | 67 | 1014.1 |
| 20260502204515 | 5 | 164 | 12.9 | 24.1 | 0.00 | 0.10 | 0.00 | 65 | 1014.2 |
| 20260502203017 | 5 | 252 | 12.9 | 25.7 | 0.00 | 0.10 | 0.00 | 65 | 1014.1 |
| 20260502201614 | 5 | 220 | 9.7 | 30.6 | 0.00 | 0.10 | 0.00 | 64 | 1014.2 |
| 20260502200056 | 5 | 281 | 16.1 | 32.2 | 0.00 | 0.15 | 0.00 | 62 | 1014.2 |
| 20260502194556 | 6 | 260 | 12.9 | 37.0 | 0.00 | 0.15 | 0.00 | 58 | 1014.2 |
| 20260502193045 | 7 | 207 | 17.7 | 32.2 | 0.00 | 0.15 | 0.00 | 57 | 1014.2 |
| 20260502191548 | 7 | 227 | 11.3 | 27.4 | 0.00 | 0.15 | 0.00 | 55 | 1014.0 |
| 20260502190046 | 8 | 215 | 9.7 | 27.4 | 0.00 | 0.20 | 0.00 | 56 | 1014.2 |
| 20260502184558 | 6 | 243 | 14.5 | 30.6 | 0.00 | 0.20 | 0.00 | 57 | 1014.2 |
| 20260502183045 | 6 | 245 | 16.1 | 29.0 | 0.00 | 0.20 | 0.00 | 56 | 1014.2 |
| 20260502181542 | 7 | 264 | 16.1 | 37.0 | 0.00 | 0.20 | 0.00 | 53 | 1014.1 |
| 20260502163053 | 7 | 174 | 8.0 | 35.4 | 0.00 | 0.23 | 0.00 | 52 | 1014.3 |
| 20260502161542 | 7 | 200 | 9.7 | 20.9 | 0.00 | 0.23 | 0.00 | 54 | 1014.3 |
| 20260502151525 | 6 | 218 | 9.7 | 37.0 | 0.00 | 0.23 | 0.00 | 57 | 1014.4 |
| 20260502123103 | 3 | 240 | 1.6 | 17.7 | 0.00 | 0.23 | 0.00 | 74 | 1015.1 |
| 20260502121553 | 2 | 195 | 0.0 | 11.3 | 0.00 | 0.23 | 0.00 | 78 | 1015.0 |
| 20260502114531 | 2 | 164 | 3.2 | 17.7 | 0.00 | 0.23 | 0.00 | 84 | 1015.2 |
| 20260502113017 | 1 | 191 | 6.4 | 24.1 | 0.00 | 0.23 | 0.00 | 85 | 1015.2 |
| 20260502111515 | 1 | 238 | 3.2 | 19.3 | 0.00 | 0.23 | 0.00 | 87 | 1014.9 |
| 20260502110012 | -17 | 0.0 | 0.0 | 0.00 | 0.23 | 0.00 | 1015.0 | ||
| 20260502104507 | -17 | 0.0 | 0.0 | 0.00 | 0.23 | 0.00 | 1015.0 | ||
| 20260502103007 | -17 | 0.0 | 0.0 | 0.00 | 0.23 | 0.00 | 1014.8 | ||
| 20260502101634 | -17 | 0.0 | 0.0 | 0.00 | 0.23 | 0.00 | 1014.7 | ||
| 20260502100117 | -17 | 0.0 | 0.0 | 0.00 | 0.23 | 0.00 | 1014.6 | ||
| 20260502071506 | 1 | 206 | 0.0 | 0.0 | 0.00 | 0.23 | 0.00 | 85 | 1013.6 |
| 20260502070056 | 2 | 240 | 0.0 | 9.7 | 0.00 | 0.23 | 0.00 | 84 | 1013.5 |
| 20260502064552 | 2 | 223 | 0.0 | 16.1 | 0.00 | 0.23 | 0.00 | 83 | 1013.4 |
| 20260502063051 | 2 | 188 | 0.0 | 9.7 | 0.00 | 0.23 | 0.00 | 83 | 1013.6 |
| 20260502061548 | 2 | 215 | 3.2 | 27.4 | 0.00 | 0.23 | 0.00 | 84 | 1013.6 |
| 20260502060052 | 3 | 230 | 0.0 | 16.1 | 0.00 | 0.23 | 0.00 | 85 | 1013.7 |
| 20260502054544 | 3 | 46 | 3.2 | 11.3 | 0.00 | 0.23 | 0.00 | 85 | 1013.6 |
| 20260502053044 | 3 | 176 | 0.0 | 3.2 | 0.00 | 0.23 | 0.00 | 84 | 1013.5 |
| 20260502051540 | 3 | 158 | 0.0 | 12.9 | 0.00 | 0.23 | 0.00 | 83 | 1013.3 |
| 20260502050016 | 3 | 227 | 1.6 | 19.3 | 0.00 | 0.23 | 0.23 | 84 | 1013.3 |
| 20260502044515 | 3 | 239 | 4.8 | 16.1 | 0.00 | 0.23 | 0.23 | 85 | 1013.1 |
| 20260502043107 | 3 | 204 | 1.6 | 16.1 | 0.00 | 0.23 | 0.23 | 85 | 1013.2 |
| 20260502041557 | 4 | 225 | 0.0 | 17.7 | 0.00 | 0.23 | 0.23 | 85 | 1013.1 |
| 20260502040043 | 4 | 184 | 1.6 | 9.7 | 0.00 | 0.23 | 0.23 | 85 | 1013.2 |